Wind_Speed
20 20 21 21 21 20 20 19 19 18 18 18 17 16 16 16 16 16 16 16 16 16 16 16 16 16 16 15 15 14 14 14 13 13 13 13 12 12 12 12 13 13 13
21 21 21 21 21 21 21 21 21 20 20 20 19 19 18 18 18 18 18 18 18 19 18 18 17 17 17 17 17 16 16 17 16 15 15 15 14 14 14 14 14 15 15
22 22 22 22 22 22 22 22 22 22 22 21 21 20 20 20 19 19 20 20 20 20 20 19 19 19 19 19 18 18 18 18 18 18 17 17 17 16 16 15 16 16 16
23 22 22 22 22 22 22 22 22 22 22 22 22 21 21 21 21 21 21 21 20 20 21 21 21 20 20 20 20 19 19 19 20 20 19 19 18 18 18 18 18 18 18
23 23 23 23 23 23 23 23 23 23 23 23 23 23 22 22 22 22 22 23 22 22 22 22 22 22 21 21 21 21 21 21 21 22 21 21 21 20 20 20 20 20 20
24 24 24 24 24 24 24 24 25 25 25 25 25 25 24 24 24 24 24 24 24 24 24 24 24 24 24 24 23 23 23 24 24 23 23 23 23 23 22 22 22 22 22
24 24 25 25 26 26 26 26 26 26 27 27 27 27 27 27 27 27 27 27 27 27 28 28 27 27 27 27 26 26 25 25 25 25 25 25 25 25 25 24 24 24 24
26 26 26 26 27 27 28 28 28 28 28 29 29 29 29 29 30 30 30 30 30 30 30 31 30 30 30 30 29 29 29 29 28 27 27 26 26 26 27 26 26 26 25
27 27 27 28 28 29 29 30 30 30 31 31 31 32 32 32 32 32 32 32 33 33 33 33 33 33 33 33 32 32 31 31 31 30 30 29 29 28 29 28 28 27 27
28 29 29 29 30 30 31 31 32 32 33 33 33 34 34 34 34 34 35 35 35 35 34 34 34 34 34 34 34 33 33 33 33 33 33 32 31 31 30 30 30 29 29
28 29 30 30 31 32 32 33 33 34 34 35 35 35 36 36 36 36 36 37 37 36 36 36 36 36 36 36 36 36 35 35 35 34 34 34 33 33 33 32 32 32 31
29 30 30 31 32 33 33 34 34 35 35 36 36 36 37 37 37 37 38 38 38 38 38 39 39 38 38 37 37 38 37 37 37 36 36 36 35 34 34 34 34 34 33
30 30 31 32 33 33 34 35 35 36 36 37 37 38 38 39 39 39 40 40 40 40 40 41 41 41 40 40 40 40 39 39 39 38 38 38 37 37 36 35 35 35 34
30 31 32 32 33 34 35 36 36 37 38 38 39 39 39 40 40 41 41 42 42 42 42 43 43 43 43 43 42 42 42 41 41 41 41 40 39 39 39 38 37 37 37
31 31 32 33 34 35 37 38 38 38 39 40 40 41 41 42 43 43 43 44 44 44 44 45 45 46 46 46 45 45 45 44 44 43 43 43 42 42 41 41 40 39 39
32 32 34 34 35 37 38 38 39 40 41 41 42 43 43 44 45 45 46 46 47 47 47 47 48 48 48 48 48 48 48 47 47 47 47 46 46 45 44 43 42 41 41
33 34 35 36 37 37 38 38 39 40 41 42 43 44 45 46 47 47 48 49 49 50 50 50 50 51 51 51 51 51 51 51 51 50 50 49 48 48 46 45 45 43 43
34 35 36 36 37 38 38 38 39 40 41 42 43 45 47 48 48 49 50 51 51 52 52 52 52 52 53 54 54 53 53 53 53 52 52 51 50 50 49 48 48 47 46
34 35 36 36 37 38 38 39 40 40 42 43 45 46 47 48 49 50 50 51 52 53 53 53 54 54 54 55 56 56 55 55 54 54 54 53 53 52 52 51 50 49 49
34 34 35 36 37 37 38 39 40 41 43 44 46 46 47 48 49 50 50 51 52 53 54 54 54 55 56 57 58 57 57 56 56 55 55 54 54 54 53 53 52 52 52
33 34 35 36 37 37 38 39 40 42 42 43 44 44 46 48 49 50 50 51 51 52 53 53 54 55 57 58 58 58 57 57 57 56 56 56 56 55 56 55 54 53 53
33 34 34 35 36 37 38 39 41 41 41 41 42 43 45 46 47 48 49 49 50 51 52 52 53 54 55 57 57 58 58 57 57 56 56 56 56 56 56 56 55 54 53
34 34 34 35 36 37 38 39 40 40 41 41 42 43 43 44 46 47 48 50 50 51 52 53 53 54 55 55 56 57 58 58 57 57 57 57 57 56 55 55 56 55 54
34 34 35 35 37 38 39 39 39 40 41 42 42 43 45 44 45 48 49 50 51 52 52 52 52 53 54 54 55 57 58 58 58 57 56 56 57 57 57 56 55 55 55
34 34 35 36 37 38 39 40 40 41 41 42 43 44 45 45 46 47 49 49 50 51 51 52 52 52 52 53 54 56 57 58 58 57 56 56 57 57 58 57 56 56 56
35 35 36 37 37 38 39 40 41 41 42 43 44 44 45 46 46 47 47 49 49 50 51 51 51 52 52 53 53 54 54 55 56 57 56 56 56 56 58 57 57 57 57
Wind_Direction
251 252 252 253 254 255 255 256 257 258 259 259 259 261 262 262 263 264 266 267 269 271 273 274 274 275 274 275 278 281 280 280 283 285 287 289 288 288 290 291 294 294 297
251 252 253 253 254 255 256 257 258 259 260 261 261 261 262 264 264 265 266 268 270 272 272 272 273 273 274 274 276 278 278 277 278 280 282 284 284 283 285 286 290 292 293
250 251 252 253 254 255 256 257 258 259 260 262 262 263 263 264 265 266 266 267 268 270 272 272 272 272 273 273 275 276 277 277 277 278 279 279 279 279 280 281 284 287 289
250 251 252 253 254 255 256 256 258 259 260 262 263 263 264 265 265 266 266 267 269 270 272 272 271 271 272 273 273 275 276 277 275 275 276 276 277 277 277 277 278 281 284
252 253 253 254 255 256 258 258 259 260 261 262 263 264 264 264 266 267 267 267 269 270 271 272 270 269 270 272 273 275 275 276 276 275 274 274 275 275 275 275 276 277 279
253 254 255 256 257 258 259 259 260 260 261 261 262 264 264 264 265 266 267 268 269 269 271 272 271 270 270 271 273 274 275 275 275 274 274 274 274 274 274 274 275 276 277
255 256 257 258 259 259 260 260 260 260 261 262 263 264 264 264 265 265 266 268 269 270 271 272 271 271 271 272 273 273 273 274 274 273 272 273 274 274 274 274 275 275 276
258 258 259 259 260 261 261 261 261 261 261 262 263 263 265 266 266 266 267 268 269 269 270 271 271 271 272 272 272 272 272 273 273 273 272 272 273 273 273 273 274 275 277
258 259 260 260 261 262 262 262 262 262 262 263 263 263 264 265 266 267 267 268 270 271 271 271 271 271 272 273 272 271 271 272 272 272 272 272 273 274 273 272 272 273 275
259 260 261 262 262 263 263 264 264 264 264 264 264 265 265 265 266 267 267 268 269 270 271 271 271 271 271 272 274 273 271 271 271 271 271 271 272 273 273 273 272 272 272
260 260 261 262 263 264 264 265 265 266 265 265 265 265 266 266 266 266 267 268 268 269 270 271 270 271 272 272 273 273 272 271 271 271 271 271 272 272 272 271 271 272 271
261 262 263 263 264 265 265 265 266 266 266 266 266 266 266 266 266 266 267 268 268 269 270 271 271 270 271 271 271 272 272 272 271 270 270 270 270 271 271 271 270 271 271
264 264 264 265 265 265 265 265 266 266 266 267 267 266 266 266 267 267 267 268 269 269 270 270 271 270 271 271 271 271 271 271 270 270 270 270 269 269 270 270 269 270 270
266 266 266 266 266 266 266 267 267 267 268 268 268 268 267 267 267 267 267 267 268 269 270 270 271 271 270 270 271 271 271 271 270 270 270 269 269 268 268 268 268 269 269
266 267 268 269 269 268 268 268 268 268 268 268 268 268 268 268 268 268 269 268 268 269 270 270 270 271 270 270 270 270 271 271 270 270 270 269 268 267 266 266 267 268 267
267 269 270 271 271 271 271 270 269 270 269 269 269 269 269 269 269 269 269 269 270 270 270 271 270 270 270 270 270 270 270 271 271 269 269 269 267 266 265 265 265 266 267
269 270 271 271 271 272 272 272 272 271 272 271 270 270 270 270 270 270 270 270 271 271 271 271 271 270 270 270 270 269 270 270 270 269 268 268 267 265 264 264 264 264 266
270 271 272 272 273 273 272 272 273 273 273 273 272 272 272 272 272 271 271 271 271 271 271 271 270 270 270 270 270 269 270 270 269 268 267 266 266 265 263 263 263 262 263
273 273 273 273 273 273 273 274 275 276 276 275 275 273 273 273 273 273 272 271 272 272 271 271 270 270 270 270 270 270 270 269 268 267 266 265 265 265 263 262 262 262 262
276 276 274 274 274 274 275 276 277 278 279 279 278 276 274 274 274 274 273 273 273 273 272 271 271 271 271 271 271 270 269 268 268 268 267 266 265 265 264 262 261 261 262
279 278 276 274 275 276 277 278 279 280 281 281 280 278 276 275 274 274 275 275 274 273 272 272 272 272 272 272 271 269 268 268 268 268 267 266 265 266 265 264 261 261 261
279 279 278 277 276 278 279 281 282 282 282 283 283 282 280 277 275 275 276 277 277 275 274 273 273 273 273 272 271 270 269 268 268 268 267 266 265 265 264 263 262 261 259
279 279 278 278 278 279 281 283 284 283 282 283 284 283 283 280 277 277 277 278 278 277 275 275 275 275 274 273 271 271 271 269 268 268 267 266 265 264 264 263 261 260 260
279 279 280 280 280 282 283 284 285 284 284 284 285 284 284 284 282 280 279 278 278 278 277 276 276 276 276 274 272 272 272 272 271 269 267 266 265 265 263 261 260 260 259
280 281 282 281 282 283 284 285 286 286 285 285 285 285 285 285 284 283 281 280 279 279 278 277 276 276 276 275 274 273 273 273 272 272 269 267 265 264 263 262 260 259 259
281 282 283 283 283 284 285 286 286 286 285 285 286 287 287 286 285 285 284 282 281 280 280 279 277 277 276 276 276 275 274 273 273 272 269 267 265 263 263 262 261 260 260
Height
5835 5836 5837 5838 5839 5840 5841 5842 5843 5844 5845 5846 5847 5848 5849 5850 5851 5852 5852 5853 5853 5854 5855 5855 5856 5856 5857 5857 5857 5858 5858 5859 5859 5859 5859 5859 5859 5859 5859 5859 5859 5858 5858
5831 5832 5834 5835 5836 5837 5838 5839 5840 5841 5842 5843 5844 5845 5846 5847 5848 5849 5850 5850 5850 5851 5851 5852 5853 5853 5854 5854 5855 5855 5855 5856 5856 5856 5856 5856 5856 5857 5857 5856 5856 5856 5856
5828 5829 5830 5831 5832 5833 5834 5835 5837 5838 5839 5840 5841 5842 5843 5844 5844 5845 5846 5846 5847 5848 5848 5849 5850 5850 5850 5851 5851 5852 5852 5852 5853 5853 5853 5853 5854 5854 5854 5854 5853 5853 5853
5824 5825 5826 5827 5829 5830 5831 5832 5833 5834 5835 5836 5837 5838 5839 5840 5840 5841 5842 5842 5843 5844 5844 5845 5846 5846 5847 5847 5848 5848 5848 5849 5849 5849 5850 5850 5850 5850 5850 5850 5850 5850 5850
5820 5821 5822 5823 5825 5826 5827 5828 5829 5830 5831 5832 5832 5833 5834 5835 5836 5837 5838 5839 5839 5840 5841 5841 5842 5842 5843 5843 5844 5844 5844 5845 5845 5846 5846 5846 5846 5846 5846 5846 5846 5846 5846
5816 5817 5818 5819 5820 5821 5822 5823 5824 5825 5826 5827 5828 5829 5830 5831 5832 5833 5833 5834 5835 5836 5836 5837 5837 5838 5838 5839 5839 5840 5840 5840 5841 5841 5842 5842 5842 5842 5842 5842 5842 5842 5842
5811 5812 5813 5814 5815 5817 5818 5819 5819 5820 5821 5822 5823 5824 5825 5826 5827 5828 5829 5829 5830 5831 5831 5832 5832 5833 5833 5834 5834 5835 5835 5836 5836 5836 5837 5837 5837 5838 5838 5838 5838 5838 5838
5807 5808 5809 5809 5810 5811 5812 5813 5814 5815 5816 5817 5818 5819 5820 5820 5821 5822 5823 5824 5824 5825 5826 5826 5827 5827 5828 5828 5829 5829 5830 5830 5831 5831 5832 5832 5832 5832 5833 5833 5833 5833 5833
5802 5802 5803 5804 5805 5806 5807 5808 5808 5809 5810 5811 5812 5813 5814 5814 5815 5816 5817 5817 5818 5819 5819 5820 5821 5821 5821 5822 5822 5823 5824 5824 5825 5825 5826 5826 5827 5827 5827 5827 5828 5828 5828
5796 5797 5798 5799 5799 5800 5801 5801 5802 5803 5804 5804 5805 5806 5807 5808 5808 5809 5810 5811 5811 5812 5812 5813 5814 5814 5815 5815 5815 5816 5817 5818 5818 5819 5819 5820 5821 5821 5821 5821 5822 5822 5822
5790 5791 5792 5792 5793 5794 5794 5795 5795 5796 5797 5797 5798 5799 5799 5800 5801 5802 5803 5803 5804 5805 5805 5806 5806 5807 5808 5808 5808 5809 5809 5810 5811 5812 5812 5813 5814 5814 5815 5815 5815 5815 5815
5784 5785 5786 5786 5787 5787 5787 5788 5788 5789 5789 5790 5790 5791 5792 5792 5793 5794 5795 5795 5796 5797 5797 5798 5798 5799 5800 5800 5801 5801 5802 5802 5803 5804 5805 5806 5806 5807 5807 5808 5808 5808 5809
5778 5778 5779 5779 5780 5780 5780 5780 5780 5781 5781 5782 5782 5783 5783 5784 5785 5785 5786 5787 5787 5788 5789 5789 5789 5790 5791 5792 5792 5792 5793 5794 5795 5796 5797 5797 5798 5799 5799 5800 5801 5801 5801
5771 5772 5772 5772 5772 5772 5772 5773 5773 5773 5773 5773 5774 5774 5775 5775 5776 5776 5777 5778 5778 5779 5779 5780 5780 5781 5781 5782 5783 5783 5784 5784 5786 5787 5788 5788 5789 5790 5791 5792 5792 5793 5793
5764 5764 5764 5764 5764 5764 5764 5764 5764 5764 5764 5764 5765 5765 5765 5766 5766 5767 5767 5768 5768 5769 5769 5770 5770 5771 5771 5772 5773 5773 5774 5774 5775 5777 5778 5779 5780 5781 5782 5783 5783 5784 5785
5757 5757 5757 5757 5756 5756 5755 5755 5755 5755 5755 5755 5755 5755 5755 5755 5756 5756 5757 5757 5758 5758 5758 5759 5760 5760 5760 5761 5762 5762 5763 5763 5764 5765 5767 5768 5769 5770 5772 5773 5774 5775 5776
5749 5749 5749 5748 5748 5747 5746 5746 5746 5745 5745 5744 5744 5744 5744 5744 5745 5745 5745 5746 5746 5746 5747 5747 5748 5748 5749 5749 5750 5750 5751 5751 5752 5753 5754 5756 5757 5759 5760 5762 5764 5765 5766
5741 5740 5739 5739 5738 5738 5737 5737 5736 5735 5734 5733 5733 5733 5732 5732 5732 5732 5733 5733 5733 5733 5734 5734 5735 5735 5736 5736 5737 5737 5737 5738 5739 5740 5741 5743 5744 5746 5748 5750 5752 5753 5755
5732 5731 5730 5729 5729 5728 5728 5727 5726 5725 5724 5722 5721 5720 5720 5719 5719 5719 5720 5720 5720 5720 5720 5720 5721 5721 5722 5722 5722 5723 5723 5724 5725 5726 5727 5729 5731 5733 5735 5737 5739 5741 5743
5723 5722 5721 5720 5719 5719 5718 5717 5716 5715 5713 5711 5709 5707 5707 5706 5706 5706 5706 5706 5706 5706 5706 5706 5706 5707 5707 5707 5707 5707 5708 5709 5710 5711 5713 5715 5716 5718 5720 5723 5725 5727 5729
5714 5712 5711 5710 5710 5710 5709 5708 5706 5704 5701 5699 5696 5695 5693 5693 5692 5693 5692 5692 5692 5692 5691 5691 5692 5692 5692 5691 5691 5692 5693 5694 5695 5696 5697 5699 5701 5703 5705 5707 5710 5712 5714
5705 5704 5702 5701 5701 5700 5699 5697 5695 5693 5690 5688 5686 5684 5681 5680 5679 5679 5679 5678 5677 5677 5677 5677 5676 5676 5676 5675 5674 5675 5677 5680 5681 5681 5682 5683 5685 5686 5688 5691 5693 5696 5699
5697 5695 5694 5693 5692 5691 5689 5687 5685 5682 5680 5678 5676 5674 5671 5668 5667 5666 5666 5665 5664 5664 5664 5663 5662 5661 5661 5660 5658 5658 5660 5663 5665 5667 5667 5668 5669 5671 5673 5675 5677 5680 5682
5688 5687 5685 5684 5682 5681 5679 5677 5674 5672 5670 5668 5665 5663 5660 5657 5655 5654 5653 5652 5651 5650 5649 5648 5647 5646 5645 5644 5644 5643 5644 5644 5646 5650 5652 5652 5654 5655 5657 5659 5661 5664 5667
5680 5678 5676 5675 5673 5671 5669 5667 5664 5661 5659 5657 5654 5652 5649 5646 5644 5642 5640 5639 5638 5636 5635 5634 5633 5632 5631 5630 5629 5629 5629 5628 5629 5630 5634 5637 5637 5639 5640 5643 5645 5648 5650
5671 5669 5667 5665 5664 5661 5659 5656 5654 5651 5648 5646 5644 5641 5638 5635 5632 5630 5628 5626 5624 5623 5622 5620 5619 5618 5616 5615 5614 5613 5613 5613 5613 5612 5615 5618 5620 5623 5624 5626 5629 5631 5634